contact:dominique.lefevre@mio.osupytheas.fr, maurice.libes@osupytheas.fr, didier.mallarino@osupytheas.fr
Project:EMSO http://www.emso-fr.org/EMSO-France
Depth: 2436.0 m
Title:EMSO Ligure Ouest : Data MII capteur AQUADOPP
Date,Latitude,Longitude,X_East,Y_North,Z_Up,Amplitude_X,Amplitude_Y,Amplitude_Z,Batterie,SoundSpeed,Heading,Pitch,Roll,Pressure,TIS,Speed,Direction
, degrees North, degrees East, m.s-1, m.s-1,m.s-1, 1, 1, 1, Volt, m.s-1, degree, degree, degree, dbar, degree_C, m.s-1, degree
2022-10-13T00:04:03,42.805,6.029,-0.019,-0.006,-0.023,103.0,103.0,101.0,13.4,1505.2,321.6,-0.8,1.9,2471.047,13.29,0.019,252.5
2022-10-13T00:07:03,42.805,6.029,-0.001,-0.005,-0.016,103.0,103.0,101.0,13.4,1505.2,319.6,-0.8,1.8,2471.1,13.29,0.005,191.3
2022-10-13T00:10:03,42.805,6.029,-0.017,0.001,-0.011,103.0,102.0,101.0,13.4,1505.2,318.3,-0.7,1.8,2471.069,13.29,0.017,273.4
2022-10-13T00:13:03,42.805,6.029,-0.006,-0.023,-0.025,103.0,103.0,100.0,13.4,1505.2,320.7,-0.8,1.9,2471.073,13.29,0.023,194.6
2022-10-13T00:16:03,42.805,6.029,-0.002,0.01,0.005,103.0,103.0,102.0,13.4,1505.2,318.3,-0.8,1.8,2471.059,13.29,0.01,348.7
2022-10-13T00:19:03,42.805,6.029,-0.03,-0.017,-0.004,103.0,103.0,102.0,13.3,1505.2,319.4,-0.8,1.8,2471.04,13.29,0.034,240.5
2022-10-13T00:22:03,42.805,6.029,-0.011,-0.001,0.007,103.0,104.0,100.0,13.3,1505.2,322.3,-0.8,1.8,2471.056,13.29,0.011,264.8
2022-10-13T00:25:03,42.805,6.029,-0.031,-0.009,0.002,103.0,102.0,100.0,13.3,1505.2,322.2,-0.8,1.9,2471.049,13.29,0.032,253.8
2022-10-13T00:28:03,42.805,6.029,-0.036,0.0,-0.012,103.0,104.0,101.0,13.3,1505.2,332.1,-0.8,1.8,2471.049,13.29,0.036,270.0
2022-10-13T00:31:03,42.805,6.029,-0.018,-0.004,-0.001,103.0,102.0,101.0,13.4,1505.2,323.4,-0.8,1.8,2471.046,13.29,0.018,257.5
2022-10-13T00:34:03,42.805,6.029,-0.029,-0.003,0.001,103.0,102.0,103.0,13.4,1505.2,326.1,-0.7,1.8,2471.032,13.29,0.029,264.1
2022-10-13T00:37:03,42.805,6.029,-0.025,0.006,0.014,102.0,102.0,101.0,13.4,1505.2,324.7,-0.7,1.8,2471.026,13.29,0.025,283.5
2022-10-13T00:40:03,42.805,6.029,-0.025,-0.01,-0.021,105.0,102.0,102.0,13.3,1505.2,326.1,-0.7,1.8,2470.991,13.29,0.026,248.2
2022-10-13T00:43:03,42.805,6.029,-0.017,-0.007,0.0,103.0,102.0,99.0,13.3,1505.2,330.9,-0.8,1.8,2471.057,13.29,0.018,247.6
2022-10-13T00:46:03,42.805,6.029,-0.018,0.006,-0.012,102.0,103.0,102.0,13.4,1505.2,318.4,-0.8,1.8,2471.043,13.29,0.018,288.4
2022-10-13T00:49:03,42.805,6.029,-0.021,-0.005,-0.012,102.0,102.0,101.0,13.3,1505.2,323.4,-0.8,1.8,2471.051,13.29,0.021,256.6
2022-10-13T00:52:03,42.805,6.029,-0.044,0.017,-0.026,103.0,102.0,100.0,13.4,1505.2,324.1,-0.8,1.8,2471.004,13.29,0.047,291.1
2022-10-13T00:55:03,42.805,6.029,0.0,-0.002,-0.005,103.0,102.0,101.0,13.3,1505.2,318.4,-0.7,1.8,2471.009,13.29,0.002,180.0
2022-10-13T00:58:03,42.805,6.029,-0.011,-0.014,-0.031,102.0,103.0,101.0,13.4,1505.2,324.7,-0.8,1.8,2470.987,13.29,0.017,218.2
2022-10-13T01:04:03,42.805,6.029,-0.009,-0.016,-0.02,105.0,104.0,103.0,13.4,1505.2,328.6,-0.7,1.8,2471.075,13.29,0.018,209.4
2022-10-13T01:07:03,42.805,6.029,0.001,0.006,0.012,103.0,103.0,101.0,13.4,1505.2,323.4,-0.7,1.9,2471.04,13.29,0.006,9.5
2022-10-13T01:10:03,42.805,6.029,-0.029,0.0,0.003,103.0,103.0,102.0,13.4,1505.2,327.3,-0.8,1.8,2471.058,13.29,0.028,270.0
2022-10-13T01:13:03,42.805,6.029,-0.022,-0.003,0.012,105.0,103.0,101.0,13.4,1505.2,329.6,-0.7,1.8,2471.012,13.29,0.022,262.2
2022-10-13T01:16:03,42.805,6.029,0.005,-0.001,0.006,104.0,102.0,102.0,13.4,1505.2,321.6,-0.8,1.8,2471.042,13.29,0.005,101.3
2022-10-13T01:19:03,42.805,6.029,0.001,-0.024,-0.025,104.0,103.0,101.0,13.4,1505.2,323.1,-0.8,1.8,2471.014,13.29,0.024,177.6
2022-10-13T01:22:03,42.805,6.029,-0.014,-0.022,-0.035,103.0,102.0,101.0,13.4,1505.2,321.1,-0.7,1.8,2471.007,13.29,0.026,212.5
2022-10-13T01:25:03,42.805,6.029,-0.02,-0.003,0.004,104.0,103.0,102.0,13.4,1505.2,323.2,-0.7,1.8,2470.976,13.29,0.02,261.5
2022-10-13T01:28:03,42.805,6.029,-0.016,-0.029,-0.045,104.0,101.0,101.0,13.4,1505.2,325.3,-0.8,1.8,2470.989,13.29,0.033,208.9
2022-10-13T01:31:03,42.805,6.029,-0.017,-0.016,-0.037,102.0,104.0,100.0,13.4,1505.2,319.8,-0.8,1.8,2471.016,13.29,0.023,226.7
2022-10-13T01:34:03,42.805,6.029,0.003,-0.013,-0.029,102.0,103.0,101.0,13.3,1505.2,328.0,-0.8,1.8,2471.008,13.29,0.013,167.0
2022-10-13T01:37:03,42.805,6.029,-0.011,-0.007,0.018,104.0,102.0,100.0,13.3,1505.2,317.8,-0.8,1.8,2471.013,13.29,0.013,237.5
2022-10-13T01:40:03,42.805,6.029,-0.031,-0.003,-0.021,102.0,105.0,100.0,13.4,1505.2,325.1,-0.8,1.8,2471.006,13.29,0.031,264.5
2022-10-13T01:43:03,42.805,6.029,-0.007,-0.001,-0.005,103.0,102.0,103.0,13.4,1505.2,328.0,-0.8,1.8,2471.021,13.29,0.007,261.9
2022-10-13T01:46:03,42.805,6.029,-0.026,-0.011,-0.03,102.0,102.0,103.0,13.3,1505.2,326.1,-0.8,1.8,2470.998,13.29,0.028,247.1
2022-10-13T01:49:03,42.805,6.029,-0.027,-0.007,-0.023,104.0,105.0,100.0,13.4,1505.2,322.9,-0.7,1.8,2471.004,13.29,0.027,255.5
2022-10-13T01:52:03,42.805,6.029,-0.005,-0.003,-0.002,102.0,103.0,102.0,13.4,1505.2,334.0,-0.8,1.8,2470.997,13.29,0.005,239.0
2022-10-13T01:55:03,42.805,6.029,-0.006,-0.01,-0.022,103.0,104.0,101.0,13.3,1505.2,323.4,-0.8,1.8,2470.997,13.29,0.011,211.0
2022-10-13T01:58:03,42.805,6.029,-0.02,-0.02,-0.011,103.0,102.0,101.0,13.4,1505.2,320.9,-0.8,1.8,2470.947,13.29,0.028,225.0
2022-10-13T02:04:03,42.805,6.029,-0.023,-0.019,-0.034,103.0,104.0,101.0,13.3,1505.2,327.6,-0.8,1.8,2471.04,13.29,0.029,230.4
2022-10-13T02:07:03,42.805,6.029,0.005,-0.001,-0.019,103.0,103.0,101.0,13.4,1505.2,334.3,-0.8,1.8,2471.034,13.29,0.005,101.3
2022-10-13T02:10:03,42.805,6.029,-0.022,-0.009,0.005,102.0,102.0,101.0,13.4,1505.2,319.1,-0.8,1.8,2471.037,13.29,0.023,247.8
2022-10-13T02:13:03,42.805,6.029,0.002,-0.01,-0.015,103.0,103.0,101.0,13.4,1505.2,327.8,-0.8,1.8,2471.005,13.29,0.01,168.7
2022-10-13T02:16:03,42.805,6.029,-0.02,-0.022,-0.028,103.0,102.0,101.0,13.4,1505.2,321.9,-0.8,1.8,2470.973,13.29,0.029,222.3
2022-10-13T02:19:03,42.805,6.029,-0.011,-0.022,-0.031,103.0,103.0,101.0,13.4,1505.2,322.9,-0.7,1.8,2470.977,13.29,0.024,206.6
2022-10-13T02:22:03,42.805,6.029,-0.012,-0.008,0.03,103.0,102.0,102.0,13.4,1505.2,325.0,-0.7,1.8,2471.005,13.29,0.014,236.3
2022-10-13T02:25:03,42.805,6.029,-0.001,-0.023,-0.042,102.0,102.0,101.0,13.4,1505.2,332.2,-0.8,1.8,2471.005,13.29,0.023,182.5
2022-10-13T02:28:03,42.805,6.029,-0.023,0.002,-0.013,103.0,104.0,101.0,13.3,1505.2,330.3,-0.8,1.8,2470.969,13.29,0.023,275.0
2022-10-13T02:31:03,42.805,6.029,-0.001,0.003,-0.007,103.0,103.0,101.0,13.4,1505.2,329.7,-0.8,1.9,2470.965,13.29,0.003,341.6
2022-10-13T02:34:03,42.805,6.029,-0.03,0.011,0.026,102.0,103.0,103.0,13.3,1505.2,323.5,-0.7,1.8,2470.981,13.29,0.031,290.1
2022-10-13T02:37:03,42.805,6.029,-0.016,-0.022,-0.018,103.0,103.0,101.0,13.3,1505.2,328.9,-0.8,1.8,2470.969,13.29,0.027,216.0
2022-10-13T02:40:03,42.805,6.029,-0.026,-0.019,-0.02,104.0,103.0,101.0,13.4,1505.2,318.7,-0.8,1.8,2470.944,13.29,0.032,233.8
2022-10-13T02:43:03,42.805,6.029,-0.002,-0.027,-0.048,103.0,104.0,101.0,13.4,1505.2,322.0,-0.8,1.8,2470.95,13.29,0.027,184.2
2022-10-13T02:46:03,42.805,6.029,-0.004,-0.009,-0.006,103.0,103.0,100.0,13.4,1505.2,325.7,-0.7,1.8,2470.977,13.29,0.009,204.0
2022-10-13T02:49:03,42.805,6.029,-0.001,0.006,0.0,101.0,103.0,101.0,13.4,1505.2,329.6,-0.7,1.8,2470.949,13.29,0.006,350.5
2022-10-13T02:52:03,42.805,6.029,-0.006,-0.001,-0.009,104.0,103.0,101.0,13.4,1505.2,327.5,-0.8,1.8,2470.973,13.29,0.006,260.5
2022-10-13T02:55:03,42.805,6.029,-0.019,-0.007,-0.037,102.0,103.0,101.0,13.4,1505.2,334.0,-0.8,1.9,2470.981,13.29,0.02,249.8
2022-10-13T02:58:03,42.805,6.029,-0.029,-0.001,-0.011,103.0,102.0,100.0,13.4,1505.2,335.0,-0.8,1.8,2471.003,13.29,0.029,268.0
2022-10-13T03:04:03,42.805,6.029,0.009,-0.014,-0.02,103.0,103.0,101.0,13.4,1505.2,332.1,-0.8,1.8,2471.032,13.29,0.016,147.3
2022-10-13T03:07:03,42.805,6.029,-0.014,-0.017,-0.027,104.0,103.0,100.0,13.3,1505.2,321.1,-0.8,1.8,2470.977,13.29,0.022,219.5
2022-10-13T03:10:03,42.805,6.029,0.028,-0.03,-0.021,103.0,103.0,101.0,13.4,1505.2,317.1,-0.8,1.8,2470.982,13.29,0.041,137.0
2022-10-13T03:13:03,42.805,6.029,-0.004,-0.006,-0.01,103.0,102.0,101.0,13.4,1505.2,326.4,-0.8,1.8,2471.002,13.29,0.007,213.7
2022-10-13T03:16:03,42.805,6.029,-0.004,-0.011,-0.024,102.0,103.0,102.0,13.3,1505.2,323.8,-0.8,1.8,2470.977,13.29,0.011,200.0
2022-10-13T03:19:03,42.805,6.029,-0.011,-0.017,-0.032,105.0,104.0,100.0,13.3,1505.2,324.7,-0.8,1.8,2470.976,13.29,0.02,212.9
2022-10-13T03:22:03,42.805,6.029,0.001,-0.02,-0.01,103.0,103.0,101.0,13.3,1505.2,324.3,-0.7,1.8,2470.947,13.29,0.02,177.1
2022-10-13T03:25:03,42.805,6.029,-0.002,-0.033,-0.005,102.0,104.0,101.0,13.4,1505.2,316.7,-0.7,1.8,2470.981,13.29,0.033,183.5
2022-10-13T03:28:03,42.805,6.029,-0.036,0.001,-0.052,103.0,103.0,101.0,13.4,1505.2,320.2,-0.8,1.8,2470.927,13.29,0.036,271.6
2022-10-13T03:31:03,42.805,6.029,-0.017,-0.003,0.002,103.0,102.0,102.0,13.4,1505.2,329.5,-0.8,1.8,2470.983,13.29,0.017,260.0
2022-10-13T03:34:03,42.805,6.029,-0.006,-0.023,-0.034,102.0,104.0,100.0,13.4,1505.2,328.5,-0.7,1.8,2470.933,13.29,0.023,194.6
2022-10-13T03:37:03,42.805,6.029,-0.011,-0.004,-0.008,104.0,103.0,102.0,13.3,1505.2,318.5,-0.8,1.8,2470.953,13.29,0.011,250.0
2022-10-13T03:40:03,42.805,6.029,-0.008,-0.011,0.011,103.0,103.0,101.0,13.4,1505.2,330.9,-0.8,1.8,2471.004,13.29,0.013,216.0
2022-10-13T03:43:03,42.805,6.029,-0.028,-0.006,-0.051,104.0,103.0,101.0,13.4,1505.2,331.6,-0.7,1.8,2470.937,13.29,0.028,257.9
2022-10-13T03:46:03,42.805,6.029,-0.008,-0.001,0.006,104.0,104.0,101.0,13.4,1505.2,325.4,-0.7,1.8,2470.95,13.29,0.008,262.9
2022-10-13T03:49:03,42.805,6.029,-0.009,0.005,-0.023,103.0,103.0,101.0,13.4,1505.2,331.7,-0.8,1.8,2470.935,13.29,0.01,299.1
2022-10-13T03:52:03,42.805,6.029,-0.014,-0.008,-0.01,104.0,104.0,101.0,13.4,1505.2,323.1,-0.8,1.8,2470.957,13.29,0.016,240.3
2022-10-13T03:55:03,42.805,6.029,-0.018,-0.017,-0.016,103.0,104.0,101.0,13.4,1505.2,320.8,-0.8,1.8,2470.974,13.29,0.024,226.6
2022-10-13T03:58:03,42.805,6.029,-0.016,-0.012,-0.025,104.0,102.0,102.0,13.3,1505.2,334.6,-0.7,1.8,2470.948,13.29,0.02,233.1
2022-10-13T04:04:03,42.805,6.029,-0.003,0.009,0.011,104.0,104.0,101.0,13.3,1505.2,331.0,-0.8,1.8,2470.983,13.29,0.009,341.6
2022-10-13T04:07:03,42.805,6.029,-0.021,-0.019,-0.038,104.0,104.0,101.0,13.4,1505.2,325.4,-0.8,1.8,2471.006,13.29,0.028,227.9
2022-10-13T04:10:03,42.805,6.029,-0.014,-0.006,0.009,104.0,104.0,101.0,13.4,1505.2,323.8,-0.7,1.9,2470.987,13.29,0.015,246.8
2022-10-13T04:13:03,42.805,6.029,0.006,-0.01,0.018,104.0,103.0,102.0,13.4,1505.2,328.5,-0.8,1.8,2470.982,13.29,0.011,149.0
2022-10-13T04:16:03,42.805,6.029,-0.023,-0.017,-0.021,105.0,104.0,101.0,13.4,1505.2,327.8,-0.8,1.8,2470.977,13.29,0.028,233.5
2022-10-13T04:19:03,42.805,6.029,0.012,-0.006,-0.033,103.0,104.0,102.0,13.4,1505.2,328.0,-0.8,1.8,2470.982,13.29,0.013,116.6
2022-10-13T04:22:03,42.805,6.029,-0.02,-0.017,0.0,104.0,103.0,102.0,13.4,1505.2,332.0,-0.8,1.8,2470.993,13.29,0.026,229.6
2022-10-13T04:25:03,42.805,6.029,-0.015,-0.009,-0.005,103.0,103.0,101.0,13.4,1505.2,325.3,-0.8,1.8,2470.965,13.29,0.017,239.0
2022-10-13T04:28:03,42.805,6.029,0.0,-0.018,-0.022,103.0,104.0,101.0,13.4,1505.2,326.7,-0.7,1.8,2470.962,13.29,0.018,180.0
2022-10-13T04:31:03,42.805,6.029,-0.027,-0.017,-0.005,104.0,103.0,101.0,13.4,1505.2,333.1,-0.7,1.8,2470.969,13.29,0.031,237.8
2022-10-13T04:34:03,42.805,6.029,0.01,-0.024,0.002,104.0,104.0,100.0,13.4,1505.2,332.1,-0.7,1.8,2470.956,13.29,0.026,157.4
2022-10-13T04:37:03,42.805,6.029,0.002,-0.012,-0.017,104.0,103.0,102.0,13.4,1505.2,320.8,-0.8,1.8,2470.974,13.29,0.012,170.5
2022-10-13T04:40:03,42.805,6.029,-0.024,0.0,-0.05,105.0,104.0,101.0,13.4,1505.2,329.3,-0.8,1.8,2470.994,13.29,0.024,270.0
2022-10-13T04:43:03,42.805,6.029,-0.014,-0.007,0.008,104.0,104.0,101.0,13.4,1505.2,319.2,-0.7,1.8,2470.969,13.29,0.015,243.4
2022-10-13T04:46:03,42.805,6.029,-0.019,-0.01,-0.015,103.0,102.0,103.0,13.3,1505.2,326.1,-0.8,1.8,2470.968,13.29,0.021,242.2
2022-10-13T04:49:03,42.805,6.029,-0.014,0.01,-0.029,103.0,104.0,101.0,13.4,1505.2,323.8,-0.8,1.8,2470.977,13.29,0.017,305.5
2022-10-13T04:52:03,42.805,6.029,-0.011,-0.004,0.025,103.0,103.0,102.0,13.4,1505.2,332.8,-0.8,1.8,2470.962,13.29,0.011,250.0
2022-10-13T04:55:03,42.805,6.029,-0.016,-0.025,-0.013,104.0,103.0,102.0,13.4,1505.2,333.7,-0.8,1.8,2470.974,13.29,0.029,212.6
2022-10-13T04:58:03,42.805,6.029,-0.012,-0.01,-0.031,104.0,104.0,102.0,13.4,1505.2,333.7,-0.8,1.8,2470.977,13.29,0.015,230.2
2022-10-13T05:04:03,42.805,6.029,-0.007,-0.015,-0.02,104.0,103.0,101.0,13.4,1505.2,320.1,-0.8,1.8,2471.029,13.29,0.016,205.0
2022-10-13T05:07:03,42.805,6.029,0.004,-0.016,-0.044,103.0,104.0,101.0,13.3,1505.2,324.9,-0.8,1.8,2471.058,13.29,0.016,166.0
2022-10-13T05:10:03,42.805,6.029,-0.025,-0.012,0.001,102.0,103.0,101.0,13.4,1505.2,319.0,-0.8,1.8,2471.054,13.29,0.027,244.4
2022-10-13T05:13:03,42.805,6.029,0.003,0.0,-0.005,103.0,103.0,101.0,13.4,1505.2,326.4,-0.8,1.8,2471.005,13.29,0.003,90.0
2022-10-13T05:16:03,42.805,6.029,-0.015,-0.016,-0.007,101.0,102.0,101.0,13.4,1505.2,325.6,-0.7,1.9,2471.037,13.29,0.021,223.1
2022-10-13T05:19:03,42.805,6.029,-0.009,-0.011,0.001,104.0,102.0,101.0,13.4,1505.2,322.1,-0.7,1.8,2470.98,13.29,0.014,219.3
2022-10-13T05:22:03,42.805,6.029,-0.001,0.005,0.004,103.0,104.0,101.0,13.4,1505.2,328.2,-0.8,1.8,2471.019,13.29,0.005,348.7
2022-10-13T05:25:03,42.805,6.029,-0.018,-0.005,0.0,104.0,104.0,101.0,13.4,1505.2,319.6,-0.7,1.8,2471.022,13.29,0.018,254.5
2022-10-13T05:28:03,42.805,6.029,0.004,-0.019,-0.005,104.0,104.0,102.0,13.4,1505.2,317.0,-0.7,1.8,2470.995,13.29,0.019,168.1
2022-10-13T05:31:03,42.805,6.029,-0.029,-0.001,-0.016,104.0,104.0,101.0,13.3,1505.2,334.0,-0.7,1.8,2471.034,13.29,0.029,268.0
2022-10-13T05:34:03,42.805,6.029,-0.002,0.018,0.007,104.0,104.0,101.0,13.3,1505.2,330.8,-0.8,1.8,2471.012,13.29,0.018,353.7
2022-10-13T05:37:03,42.805,6.029,-0.007,-0.009,-0.016,103.0,102.0,101.0,13.4,1505.2,321.2,-0.8,1.8,2471.025,13.29,0.011,217.9
2022-10-13T05:40:03,42.805,6.029,0.0,-0.001,-0.039,103.0,103.0,101.0,13.4,1505.2,318.7,-0.7,1.8,2470.985,13.29,0.001,180.0
2022-10-13T05:43:03,42.805,6.029,-0.011,-0.017,-0.023,104.0,104.0,101.0,13.4,1505.2,324.6,-0.8,1.8,2471.019,13.29,0.02,212.9
2022-10-13T05:46:03,42.805,6.029,0.0,-0.026,-0.027,104.0,103.0,101.0,13.3,1505.2,322.1,-0.8,1.8,2471.0,13.29,0.026,180.0
2022-10-13T05:49:03,42.805,6.029,-0.012,-0.03,-0.007,105.0,104.0,102.0,13.4,1505.2,329.2,-0.7,1.8,2471.036,13.29,0.032,201.8
2022-10-13T05:52:03,42.805,6.029,-0.011,0.004,-0.019,102.0,103.0,101.0,13.4,1505.2,330.9,-0.8,1.8,2471.062,13.29,0.011,290.0
2022-10-13T05:55:03,42.805,6.029,-0.035,-0.015,0.022,105.0,101.0,102.0,13.3,1505.2,325.3,-0.8,1.8,2470.996,13.29,0.038,246.8
2022-10-13T05:58:03,42.805,6.029,-0.011,-0.016,-0.01,104.0,102.0,102.0,13.4,1505.2,325.9,-0.8,1.8,2470.986,13.29,0.019,214.5
2022-10-13T06:04:03,42.805,6.029,-0.023,-0.025,0.0,105.0,102.0,102.0,13.3,1505.2,332.4,-0.8,1.8,2471.074,13.29,0.033,222.6
2022-10-13T06:07:03,42.805,6.029,-0.024,0.0,0.001,104.0,104.0,102.0,13.3,1505.2,331.6,-0.7,1.8,2471.113,13.29,0.024,270.0
2022-10-13T06:10:03,42.805,6.029,-0.008,-0.013,-0.034,104.0,104.0,102.0,13.4,1505.2,325.9,-0.8,1.8,2471.096,13.29,0.015,211.6
2022-10-13T06:13:03,42.805,6.029,-0.028,0.0,-0.005,105.0,104.0,102.0,13.4,1505.2,330.5,-0.8,1.8,2471.076,13.29,0.028,270.0
2022-10-13T06:16:03,42.805,6.029,0.0,-0.011,-0.036,104.0,104.0,103.0,13.3,1505.2,325.1,-0.8,1.8,2471.07,13.29,0.011,180.0
2022-10-13T06:19:03,42.805,6.029,-0.023,-0.006,-0.026,102.0,105.0,102.0,13.4,1505.2,320.1,-0.8,1.8,2471.057,13.29,0.023,255.4
2022-10-13T06:22:03,42.805,6.029,-0.021,-0.012,0.011,104.0,103.0,102.0,13.4,1505.2,327.1,-0.8,1.8,2471.034,13.29,0.024,240.3
2022-10-13T06:25:03,42.805,6.029,-0.017,0.021,0.009,104.0,104.0,100.0,13.3,1505.2,316.3,-0.7,1.8,2471.079,13.29,0.027,321.0
2022-10-13T06:28:03,42.805,6.029,-0.001,0.0,-0.024,104.0,103.0,101.0,13.4,1505.2,331.5,-0.8,1.8,2471.041,13.29,0.001,270.0
2022-10-13T06:31:03,42.805,6.029,-0.019,-0.006,0.003,103.0,103.0,100.0,13.4,1505.2,328.4,-0.7,1.8,2471.101,13.29,0.019,252.5
2022-10-13T06:34:03,42.805,6.029,-0.026,-0.001,-0.002,104.0,104.0,101.0,13.4,1505.2,321.0,-0.7,1.8,2471.072,13.29,0.026,267.8
2022-10-13T06:37:03,42.805,6.029,-0.034,0.001,-0.04,104.0,104.0,101.0,13.3,1505.2,320.3,-0.8,1.8,2471.077,13.29,0.034,271.7
2022-10-13T06:40:03,42.805,6.029,-0.03,0.005,-0.009,103.0,104.0,102.0,13.4,1505.2,328.7,-0.8,1.8,2471.073,13.29,0.03,279.5
2022-10-13T06:43:03,42.805,6.029,-0.022,-0.018,-0.001,104.0,103.0,101.0,13.3,1505.2,323.2,-0.8,1.8,2471.046,13.29,0.028,230.7
2022-10-13T06:46:03,42.805,6.029,-0.036,0.012,0.038,104.0,104.0,100.0,13.3,1505.2,327.7,-0.7,1.8,2471.052,13.29,0.037,288.4
2022-10-13T06:49:03,42.805,6.029,-0.013,0.003,0.007,104.0,102.0,102.0,13.4,1505.2,328.9,-0.7,1.9,2471.102,13.29,0.013,283.0
2022-10-13T06:52:03,42.805,6.029,-0.031,-0.003,-0.004,105.0,102.0,102.0,13.3,1505.2,326.1,-0.8,1.8,2471.093,13.29,0.031,264.5
2022-10-13T06:55:03,42.805,6.029,-0.018,0.01,-0.035,103.0,103.0,101.0,13.4,1505.2,320.8,-0.8,1.8,2471.099,13.29,0.02,299.1
2022-10-13T06:58:03,42.805,6.029,-0.029,0.012,-0.015,103.0,103.0,102.0,13.3,1505.2,328.4,-0.8,1.8,2471.136,13.29,0.031,292.5
2022-10-13T07:04:03,42.805,6.029,-0.037,0.0,-0.004,103.0,103.0,101.0,13.4,1505.2,329.9,-0.8,1.8,2471.159,13.29,0.037,270.0
2022-10-13T07:07:03,42.805,6.029,-0.019,0.023,0.0,103.0,104.0,102.0,13.4,1505.2,319.6,-0.8,1.8,2471.128,13.29,0.029,320.4
2022-10-13T07:10:03,42.805,6.029,-0.019,0.008,-0.015,104.0,103.0,102.0,13.4,1505.2,325.1,-0.8,1.8,2471.15,13.29,0.02,292.8
2022-10-13T07:13:03,42.805,6.029,-0.042,-0.003,-0.004,104.0,103.0,101.0,13.3,1505.2,318.0,-0.7,1.8,2471.159,13.29,0.042,265.9
2022-10-13T07:16:03,42.805,6.029,-0.016,0.003,-0.008,104.0,102.0,102.0,13.4,1505.2,333.1,-0.8,1.8,2471.134,13.29,0.016,280.6
2022-10-13T07:19:03,42.805,6.029,-0.012,0.011,-0.002,104.0,104.0,101.0,13.4,1505.2,330.3,-0.8,1.8,2471.116,13.29,0.016,312.5
2022-10-13T07:22:03,42.805,6.029,-0.038,0.0,0.003,105.0,104.0,101.0,13.3,1505.2,332.4,-0.8,1.8,2471.137,13.29,0.038,270.0
2022-10-13T07:25:03,42.805,6.029,-0.038,0.023,-0.008,104.0,105.0,100.0,13.4,1505.2,323.9,-0.8,1.8,2471.195,13.29,0.044,301.2
2022-10-13T07:28:03,42.805,6.029,-0.026,-0.022,0.001,104.0,103.0,101.0,13.4,1505.2,323.2,-0.7,1.8,2471.132,13.29,0.034,229.8
2022-10-13T07:31:03,42.805,6.029,-0.013,0.017,-0.005,104.0,103.0,101.0,13.4,1505.2,326.5,-0.8,1.8,2471.131,13.29,0.021,322.6
2022-10-13T07:34:03,42.805,6.029,-0.027,0.008,0.016,103.0,104.0,101.0,13.4,1505.2,327.6,-0.8,1.8,2471.153,13.29,0.028,286.5
2022-10-13T07:37:03,42.805,6.029,-0.042,0.014,0.011,103.0,103.0,102.0,13.3,1505.2,322.8,-0.8,1.9,2471.149,13.29,0.044,288.4
2022-10-13T07:40:03,42.805,6.029,-0.027,0.0,0.027,103.0,104.0,101.0,13.4,1505.2,319.1,-0.8,1.8,2471.137,13.29,0.026,270.0
2022-10-13T07:43:03,42.805,6.029,-0.031,0.023,0.016,103.0,104.0,101.0,13.4,1505.2,326.5,-0.8,1.8,2471.112,13.29,0.038,306.6
2022-10-13T07:46:03,42.805,6.029,-0.043,0.017,-0.003,104.0,104.0,101.0,13.4,1505.2,319.5,-0.8,1.8,2471.137,13.29,0.046,291.6
2022-10-13T07:49:03,42.805,6.029,-0.058,-0.011,-0.024,104.0,102.0,102.0,13.4,1505.2,319.9,-0.8,1.8,2471.123,13.29,0.059,259.3
2022-10-13T07:52:03,42.805,6.029,-0.023,0.019,-0.02,102.0,103.0,101.0,13.4,1505.2,331.5,-0.8,1.8,2471.134,13.29,0.029,309.6
2022-10-13T07:55:03,42.805,6.029,-0.033,0.009,-0.025,103.0,103.0,101.0,13.4,1505.2,327.7,-0.8,1.9,2471.148,13.29,0.034,285.3
2022-10-13T07:58:03,42.805,6.029,-0.041,0.015,-0.002,104.0,102.0,100.0,13.4,1505.2,322.2,-0.8,1.8,2471.137,13.29,0.043,290.1
2022-10-13T08:04:03,42.805,6.029,-0.038,0.024,-0.012,101.0,101.0,100.0,13.4,1505.2,334.6,-0.8,1.8,2471.18,13.28,0.044,302.3
2022-10-13T08:07:03,42.805,6.029,-0.04,0.013,-0.015,101.0,102.0,99.0,13.3,1505.2,331.2,-0.8,1.8,2471.19,13.28,0.042,288.0
2022-10-13T08:10:03,42.805,6.029,-0.044,0.022,-0.016,103.0,102.0,99.0,13.4,1505.2,331.2,-0.7,1.8,2471.195,13.29,0.049,296.6
2022-10-13T08:13:03,42.805,6.029,-0.038,0.01,0.004,102.0,101.0,101.0,13.3,1505.2,328.5,-0.8,1.8,2471.173,13.29,0.039,284.7
2022-10-13T08:16:03,42.805,6.029,-0.036,0.014,-0.016,102.0,101.0,100.0,13.3,1505.2,324.6,-0.8,1.8,2471.121,13.29,0.038,291.2
2022-10-13T08:19:03,42.805,6.029,-0.021,0.009,0.027,102.0,103.0,99.0,13.3,1505.2,328.0,-0.8,1.8,2471.158,13.29,0.022,293.2
2022-10-13T08:22:03,42.805,6.029,-0.037,0.019,-0.011,101.0,101.0,100.0,13.4,1505.2,322.4,-0.8,1.8,2471.135,13.29,0.041,297.2
2022-10-13T08:25:03,42.805,6.029,-0.039,0.014,-0.008,101.0,100.0,100.0,13.4,1505.2,328.5,-0.7,1.8,2471.103,13.29,0.041,289.7
2022-10-13T08:28:03,42.805,6.029,-0.024,0.014,-0.012,102.0,101.0,99.0,13.4,1505.2,321.6,-0.8,1.8,2471.175,13.29,0.027,300.3
2022-10-13T08:31:03,42.805,6.029,-0.032,0.01,0.008,102.0,102.0,99.0,13.3,1505.2,320.0,-0.8,1.8,2471.145,13.29,0.033,287.4
2022-10-13T08:34:03,42.805,6.029,-0.026,0.032,0.016,101.0,100.0,100.0,13.4,1505.2,317.6,-0.8,1.8,2471.159,13.29,0.041,320.9
2022-10-13T08:37:03,42.805,6.029,-0.028,-0.006,-0.008,100.0,101.0,99.0,13.4,1505.2,320.1,-0.7,1.8,2471.158,13.29,0.028,257.9
2022-10-13T08:40:03,42.805,6.029,-0.033,0.003,-0.037,102.0,101.0,99.0,13.4,1505.2,325.3,-0.8,1.9,2471.177,13.29,0.033,275.2
2022-10-13T08:43:03,42.805,6.029,-0.003,0.005,-0.032,102.0,101.0,99.0,13.4,1505.2,327.4,-0.7,1.8,2471.152,13.29,0.005,329.0
2022-10-13T08:46:03,42.805,6.029,-0.035,0.027,0.021,102.0,99.0,101.0,13.4,1505.2,323.3,-0.8,1.8,2471.125,13.29,0.044,307.7
2022-10-13T08:49:04,42.805,6.029,-0.022,0.014,-0.025,101.0,101.0,99.0,13.4,1505.2,322.9,-0.7,1.8,2471.139,13.29,0.026,302.5
2022-10-13T08:52:03,42.805,6.029,-0.057,-0.009,-0.03,101.0,101.0,100.0,13.4,1505.2,321.8,-0.8,1.8,2471.171,13.29,0.057,261.0
2022-10-13T08:55:03,42.805,6.029,-0.05,0.012,0.003,101.0,101.0,100.0,13.4,1505.2,316.7,-0.7,1.8,2471.122,13.29,0.051,283.5
2022-10-13T08:58:03,42.805,6.029,-0.05,0.011,0.01,100.0,101.0,100.0,13.3,1505.2,327.6,-0.8,1.8,2471.147,13.29,0.051,282.4
2022-10-13T09:04:03,42.805,6.029,-0.043,0.005,-0.021,100.0,101.0,100.0,13.4,1505.2,331.0,-0.8,1.8,2471.19,13.28,0.043,276.6
2022-10-13T09:07:03,42.805,6.029,-0.028,0.011,-0.004,100.0,102.0,100.0,13.3,1505.2,330.5,-0.8,1.8,2471.191,13.29,0.03,291.4
2022-10-13T09:10:03,42.805,6.029,-0.056,0.038,0.037,101.0,101.0,100.0,13.4,1505.2,326.5,-0.8,1.8,2471.175,13.29,0.067,304.2
2022-10-13T09:13:03,42.805,6.029,-0.049,0.001,-0.03,101.0,101.0,100.0,13.4,1505.2,324.9,-0.8,1.8,2471.158,13.29,0.049,271.2
2022-10-13T09:16:03,42.805,6.029,-0.043,0.016,-0.005,101.0,101.0,99.0,13.3,1505.2,328.2,-0.8,1.8,2471.175,13.29,0.045,290.4
2022-10-13T09:19:03,42.805,6.029,-0.014,-0.016,-0.038,100.0,102.0,99.0,13.4,1505.2,327.2,-0.7,1.8,2471.179,13.29,0.021,221.2
2022-10-13T09:22:03,42.805,6.029,-0.023,0.0,-0.02,100.0,101.0,100.0,13.4,1505.2,326.4,-0.8,1.8,2471.136,13.29,0.023,270.0
2022-10-13T09:25:03,42.805,6.029,-0.004,0.004,-0.033,101.0,100.0,99.0,13.4,1505.2,321.7,-0.8,1.8,2471.128,13.29,0.005,315.0
2022-10-13T09:28:03,42.805,6.029,-0.057,0.012,-0.006,100.0,100.0,100.0,13.3,1505.2,320.7,-0.7,1.8,2471.16,13.29,0.058,281.9
2022-10-13T09:31:03,42.805,6.029,-0.018,0.022,-0.014,100.0,100.0,99.0,13.3,1505.2,323.8,-0.8,1.8,2471.124,13.29,0.028,320.7
2022-10-13T09:34:03,42.805,6.029,-0.037,0.026,-0.012,100.0,100.0,100.0,13.4,1505.2,328.4,-0.8,1.8,2471.155,13.29,0.045,305.1
2022-10-13T09:37:03,42.805,6.029,-0.027,0.015,-0.009,100.0,101.0,99.0,13.4,1505.2,328.0,-0.8,1.8,2471.157,13.29,0.03,299.1
2022-10-13T09:40:03,42.805,6.029,-0.023,0.015,-0.013,99.0,101.0,99.0,13.4,1505.2,330.1,-0.8,1.8,2471.132,13.29,0.027,303.1
2022-10-13T09:43:03,42.805,6.029,-0.011,0.036,0.044,101.0,99.0,99.0,13.4,1505.2,333.1,-0.7,1.8,2471.147,13.29,0.037,343.0
2022-10-13T09:46:03,42.805,6.029,-0.012,0.01,-0.026,101.0,100.0,100.0,13.4,1505.2,320.6,-0.8,1.8,2471.14,13.29,0.015,309.8
2022-10-13T09:49:03,42.805,6.029,-0.034,0.025,0.003,101.0,100.0,99.0,13.3,1505.2,330.2,-0.8,1.8,2471.123,13.29,0.042,306.3
2022-10-13T09:52:03,42.805,6.029,-0.051,0.037,0.021,100.0,99.0,100.0,13.4,1505.2,325.3,-0.8,1.8,2471.113,13.29,0.063,306.0